This is the latest recevied weather packets stored in our database for station/object HS9DMC-13. If no packets are shown the sender has not sent any weather packets the latest 10 day(s).
| Time | Temp. | Humidity | Pressure | Rain* | Wind** | Luminosity | Snow |
|---|---|---|---|---|---|---|---|
| 1777773357 | 34.44° C | 57% | 1009.3 hPa | 0 mm | - | - | - |
| 1777773177 | 34.44° C | 59% | 1009.2 hPa | 0 mm | - | - | - |
| 1777772997 | 34.44° C | 59% | 1009.2 hPa | 0 mm | - | - | - |
| 1777772817 | 34.44° C | 60% | 1009.1 hPa | 0 mm | - | - | - |
| 1777772456 | 34.44° C | 59% | 1009.1 hPa | 0 mm | - | - | - |
| 1777772276 | 35° C | 58% | 1009 hPa | 0 mm | - | - | - |
| 1777772166 | 34.44° C | 59% | 1009.1 hPa | 0 mm | - | - | - |
| 1777771986 | 34.44° C | 60% | 1009.1 hPa | 0 mm | - | - | - |
| 1777771806 | 34.44° C | 61% | 1009.1 hPa | 0 mm | - | - | - |
| 1777771627 | 34.44° C | 60% | 1009 hPa | 0 mm | - | - | - |
| 1777771446 | 33.89° C | 61% | 1009 hPa | 0 mm | - | - | - |
| 1777771266 | 33.89° C | 63% | 1008.9 hPa | 0 mm | - | - | - |
| 1777771086 | 33.89° C | 63% | 1008.9 hPa | 0 mm | - | - | - |
| 1777770905 | 33.33° C | 63% | 1008.9 hPa | 0 mm | - | - | - |
| 1777770725 | 33.33° C | 65% | 1008.7 hPa | 0 mm | - | - | - |
| 1777770545 | 32.78° C | 66% | 1008.7 hPa | 0 mm | - | - | - |
| 1777770365 | 32.78° C | 66% | 1008.8 hPa | 0 mm | - | - | - |
| 1777770185 | 32.22° C | 67% | 1008.7 hPa | 0 mm | - | - | - |
| 1777770005 | 32.22° C | 68% | 1008.7 hPa | 0 mm | - | - | - |
| 1777769825 | 31.67° C | 70% | 1008.6 hPa | 0 mm | - | - | - |
| 1777769645 | 31.11° C | 70% | 1008.6 hPa | 0 mm | - | - | - |
| 1777769465 | 31.11° C | 72% | 1008.6 hPa | 0 mm | - | - | - |
| 1777769285 | 30.56° C | 72% | 1008.7 hPa | 0 mm | - | - | - |
| 1777768924 | 30° C | 74% | 1008.6 hPa | 0 mm | - | - | - |
| 1777768745 | 29.44° C | 75% | 1008.5 hPa | 0 mm | - | - | - |
* Rain since midnight (hover to see other rain measurements)
** Current wind speed in m/s (hover to see current wind gust speed)